This demonstration page uses our WeatherBlox Daily Observations layout. Learn more.

Left ArrowRight Arrow

Hourly Observations for December 8, 2021

Temp ( °F °C ) Dew Point ( °F °C ) Humidity (%) Winds ( mph kmh ) Pressure ( in mb ) Visibility ( mi km ) Precip ( " mm )
12:53 am 00:53 Cloudy with Light Snow 25 -3.9 20 -6.7 81 81 N N/A 30.14 1021 3 4 0.00 0.00
1:03 am 01:03 Cloudy with Light Snow 25 -3.9 20 -6.7 81 81 N N/A 30.16 1021 3 5 0.00 0.00
1:12 am 01:12 Cloudy with Light Snow 25 -3.9 20 -6.7 81 81 N N/A 30.16 1021 3 4 0.00 0.00
1:53 am 01:53 Cloudy with Light Snow 25 -3.9 21 -6.1 85 85 N N/A 30.13 1020 4 6 0.00 0.00
2:34 am 02:34 Cloudy 25 -3.9 22 -5.6 88 88 N N/A 30.13 1020 10 16 0.00 0.00
2:53 am 02:53 Cloudy 25 -3.9 22 -5.6 88 88 N N/A 30.11 1020 10 16 0.00 0.00
3:50 am 03:50 Cloudy 27 -3 21 -6 80 80 SSE 3 6 30.11 1020 10 16 N/A
3:53 am 03:53 Cloudy 26 -3.3 22 -5.6 84 84 N N/A 30.09 1019 10 16 N/A
4:53 am 04:53 Cloudy 26 -3.3 23 -5 88 88 N N/A 30.06 1018 10 16 N/A
5:21 am 05:21 Cloudy 26 -3.3 23 -5 88 88 N N/A 30.08 1019 10 16 N/A
5:39 am 05:39 Cloudy 27 -2.8 24 -4.4 89 89 N N/A 30.08 1019 10 16 N/A
5:53 am 05:53 Cloudy 27 -2.8 24 -4.4 89 89 SSW 3 6 30.06 1018 10 16 N/A
6:03 am 06:03 Cloudy 27 -2.8 24 -4.4 89 89 N N/A 30.08 1019 10 16 N/A
6:50 am 06:50 Cloudy 27 -3 25 -4 93 93 SW 3 6 30.08 1019 10 16 N/A
6:53 am 06:53 Cloudy 27 -2.8 23 -5 85 85 N N/A 30.06 1018 10 16 N/A
7:10 am 07:10 Partly Cloudy 26 -3.3 23 -5 88 88 N N/A 30.08 1019 10 16 N/A
7:53 am 07:53 Sunny 25 -3.9 22 -5.6 88 88 N N/A 30.06 1018 8 13 N/A
8:53 am 08:53 Mostly Cloudy 28 -2.2 24 -4.4 85 85 N N/A 30.05 1018 10 16 N/A
9:45 am 09:45 Mostly Sunny 30 -1.1 25 -3.9 82 82 N N/A 30.08 1019 10 16 N/A
9:53 am 09:53 Sunny 30 -1.1 25 -3.9 82 82 N N/A 30.06 1018 10 16 N/A
10:53 am 10:53 Sunny 33 0.6 25 -3.9 72 72 SSW 6 9 30.06 1018 10 16 N/A
11:53 am 11:53 Sunny 36 2.2 25 -3.9 64 64 WSW 8 13 30.04 1017 10 16 N/A
12:53 pm 12:53 Sunny 37 2.8 24 -4.4 59 59 SW 8 13 30.02 1017 10 16 N/A
1:53 pm 13:53 Sunny 39 3.9 24 -4.4 55 55 WSW 8 13 30.02 1017 10 16 N/A
2:53 pm 14:53 Sunny 41 5 23 -5 49 49 WSW 8 13 30.01 1016 10 16 N/A
3:53 pm 15:53 Partly Cloudy 40 4.4 23 -5 51 51 WSW 10 17 30.03 1017 10 16 N/A
4:53 pm 16:53 Sunny 39 3.9 22 -5.6 50 50 W 6 9 30.04 1017 10 16 N/A
5:53 pm 17:53 Mostly Clear 33 0.6 23 -5 66 66 WNW 5 7 30.07 1018 10 16 N/A
6:53 pm 18:53 Clear 29 -1.7 23 -5 78 78 N N/A 30.10 1019 10 16 N/A
7:53 pm 19:53 Clear 25 -3.9 21 -6.1 85 85 N N/A 30.13 1020 10 16 N/A
8:53 pm 20:53 Clear 24 -4.4 21 -6.1 88 88 N N/A 30.13 1020 10 16 N/A
9:53 pm 21:53 Clear 22 -5.6 20 -6.7 92 92 N N/A 30.12 1020 10 16 N/A
10:53 pm 22:53 Clear 22 -5.6 20 -6.7 92 92 N N/A 30.12 1020 10 16 N/A
11:53 pm 23:53 Clear 22 -5.6 17 -8.3 82 82 N N/A 30.12 1020 10 16 N/A

Powered by AerisWeather